Starlink 34574

operational
NORAD ID: 64714 Int'l Des: 2025-142 Owner: SPXS Country: US Constellation: starlink
LEOCIRCULAR

Über Starlink 34574

Beschreibung wird geladen...

Live-Position

3D-Globus wird geladen...

Nächste Überflüge

Höhenverlauf

Altitude vs Time

uPlot chart will show altitude changes over time

Zweizeiliger Elementsatz

1 64714U 25142U 25340.92217862 .00009923 00000-0 83813-3 0 9996
2 64714 70.0011 188.4067 0002651 267.2864 92.7991 14.98334286 25592
Epoch: 6. Dez. 2025 • Age: 19 hours

Aktueller Status

Höhe 574.6 km
Geschwindigkeit 7.57 km/s
Subsatellitenpunkt -0.40°S, 150.85°W
Startdatum 28. Juni 2025
Alter 0.4 years
Typ internet

Technische Details

Klassifizierung Payload
Masse 575.00 kg
Trockenmasse 530.00 kg
Gesamtmasse 575.00 kg
Länge 0.30 m
Durchmesser 4.10 m
Spannweite 29.00 m
Form Box + pan
Hersteller SPXS
Bus-Typ Starlink V2MO
Phasenstatus In Orbit
Besitzer/Staat SPXS/US

Große Konstellationen

Loading constellations...